Edinburgh Airport, United Kingdom

3:16 PM BST on September 20, 2017 (GMT +0100)
Edinburgh Airport

Weather History for EGPH - February, 2013

Change the Weather History Date:

Thursday, February 14, 2013

  Actual Average Record
Temperature  
Mean Temperature 44 °F -  
Max Temperature 48 °F 46 °F 57 °F (1998)
Min Temperature 41 °F 33 °F 23 °F (2003)
Degree Days  
Heating Degree Days 20    
Moisture  
Dew Point 40 °F    
Average Humidity 85    
Maximum Humidity 93    
Minimum Humidity 71    
Precipitation  
Precipitation 0.00 in 0.06 in - ()
Sea Level Pressure  
Sea Level Pressure 29.65 in    
Wind  
Wind Speed 11 mph ()    
Max Wind Speed 20 mph    
Max Gust Speed -    
Visibility 6.2 miles    
Events Rain    
Averages and records for this station are not official NWS values.
T = Trace of Precipitation, MM = Missing Value Source: Averaged Metar Reports

Daily Weather History Graph

Daily Weather History Graph

Search for Another Location

Airport or City:

Trip Planner

Search our weather history database for the weather conditions in past years. The results will help you decide how hot, cold, wet, or windy it might be!

Date:

Astronomy

Feb. 14, 2013 Rise Set
Actual Time 7:40 AM GMT 5:15 PM GMT
Civil Twilight 7:01 AM GMT 5:54 PM GMT
Nautical Twilight 6:18 AM GMT 6:37 PM GMT
Astronomical Twilight 5:35 AM GMT 7:20 PM GMT
Moon 8:37 AM GMT (2/14) 11:08 PM GMT (2/14)
Length of Visible Light 10h 52m
Length of Day
9h 34m
Waxing Crescent, 19% of the Moon is Illuminated
Feb 14
Waxing Crescent
Feb 17
First Quarter
Feb 25
Full
Mar 4
Last Quarter
Mar 11
New

Hourly Weather History & Observations

Time (GMT) Temp. Windchill Dew Point Humidity Pressure Visibility Wind Dir Wind Speed Gust Speed Precip Events Conditions
12:20 AM 41.0 °F 34.7 °F 39.2 °F 93% 29.53 in 6.2 mi WSW 10.4 mph - N/A   Partly Cloudy
12:50 AM 42.8 °F 36.6 °F 39.2 °F 87% 29.53 in 6.2 mi SW 11.5 mph - N/A   Partly Cloudy
1:20 AM 42.8 °F 37.0 °F 39.2 °F 87% 29.53 in 6.2 mi SW 10.4 mph - N/A   Partly Cloudy
1:50 AM 42.8 °F 37.0 °F 39.2 °F 87% 29.56 in 6.2 mi WSW 10.4 mph - N/A Rain Light Rain
2:20 AM 44.6 °F 40.2 °F 41.0 °F 87% 29.56 in 6.2 mi WSW 8.1 mph - N/A   Mostly Cloudy
2:50 AM 42.8 °F 38.0 °F 41.0 °F 93% 29.56 in 6.2 mi SW 8.1 mph - N/A   Overcast
3:20 AM 42.8 °F 37.5 °F 41.0 °F 93% 29.56 in 5.6 mi WSW 9.2 mph - N/A Rain Light Rain
3:50 AM 41.0 °F 34.7 °F 39.2 °F 93% 29.56 in 6.2 mi SW 10.4 mph - N/A   Mostly Cloudy
4:20 AM 42.8 °F 36.6 °F 39.2 °F 87% 29.56 in 6.2 mi SW 11.5 mph - N/A   Scattered Clouds
4:50 AM 42.8 °F 36.6 °F 41.0 °F 93% 29.56 in 6.2 mi SW 11.5 mph - N/A   Scattered Clouds
5:20 AM 42.8 °F 36.2 °F 39.2 °F 87% 29.56 in 6.2 mi SW 12.7 mph - N/A   Scattered Clouds
5:50 AM 42.8 °F 35.8 °F 39.2 °F 87% 29.56 in 6.2 mi SW 13.8 mph - N/A   Partly Cloudy
6:20 AM 41.0 °F 33.5 °F 39.2 °F 93% 29.56 in 6.2 mi SW 13.8 mph - N/A   Scattered Clouds
6:50 AM 41.0 °F 35.2 °F 39.2 °F 93% 29.59 in 6.2 mi WSW 9.2 mph - N/A   Partly Cloudy
7:20 AM 41.0 °F 36.4 °F 39.2 °F 93% 29.59 in 6.2 mi WSW 6.9 mph - N/A   Scattered Clouds
7:50 AM 41.0 °F 35.8 °F 39.2 °F 93% 29.59 in 6.2 mi WSW 8.1 mph - N/A   Scattered Clouds
8:20 AM 42.8 °F 37.0 °F 41.0 °F 93% 29.62 in 6.2 mi WSW 10.4 mph - N/A   Scattered Clouds
8:50 AM 42.8 °F 36.2 °F 39.2 °F 87% 29.62 in 6.2 mi WSW 12.7 mph - N/A   Partly Cloudy
9:20 AM 44.6 °F 38.1 °F 41.0 °F 87% 29.62 in 6.2 mi WSW 13.8 mph - N/A   Partly Cloudy
9:50 AM 44.6 °F 37.4 °F 41.0 °F 87% 29.62 in 6.2 mi WSW 16.1 mph - N/A   Partly Cloudy
10:20 AM 46.4 °F 39.0 °F 41.0 °F 81% 29.62 in 6.2 mi WSW 19.6 mph - N/A   Partly Cloudy
10:50 AM 46.4 °F 39.5 °F 41.0 °F 81% 29.62 in 6.2 mi WSW 17.3 mph - N/A   Partly Cloudy
11:20 AM 48.2 °F - 41.0 °F 76% 29.65 in 6.2 mi WSW 15.0 mph - N/A   Scattered Clouds
11:50 AM 46.4 °F 39.5 °F 41.0 °F 81% 29.65 in 6.2 mi WSW 17.3 mph - N/A   Mostly Cloudy
12:20 PM 46.4 °F 39.8 °F 41.0 °F 81% 29.65 in 6.2 mi WSW 16.1 mph - N/A   Mostly Cloudy
12:50 PM 46.4 °F 40.1 °F 41.0 °F 81% 29.65 in 6.2 mi West 15.0 mph - N/A   Mostly Cloudy
1:20 PM 48.2 °F - 41.0 °F 76% 29.65 in 6.2 mi West 16.1 mph - N/A   Partly Cloudy
1:50 PM 48.2 °F - 41.0 °F 76% 29.68 in 6.2 mi WSW 16.1 mph - N/A   Partly Cloudy
2:20 PM 48.2 °F - 39.2 °F 71% 29.68 in 6.2 mi West 16.1 mph - N/A   Partly Cloudy
2:50 PM 48.2 °F - 39.2 °F 71% 29.68 in 6.2 mi West 10.4 mph - N/A   Partly Cloudy
3:20 PM 46.4 °F 40.4 °F 39.2 °F 76% 29.68 in 6.2 mi WSW 13.8 mph - N/A   Partly Cloudy
3:50 PM 46.4 °F 39.5 °F 39.2 °F 76% 29.68 in 6.2 mi WSW 17.3 mph - N/A   Scattered Clouds
4:20 PM 46.4 °F 40.1 °F 39.2 °F 76% 29.68 in 6.2 mi WSW 15.0 mph - N/A   Partly Cloudy
4:50 PM 46.4 °F 40.4 °F 39.2 °F 76% 29.68 in 6.2 mi WSW 13.8 mph - N/A   Partly Cloudy
5:20 PM 44.6 °F 37.4 °F 39.2 °F 81% 29.71 in 6.2 mi WSW 16.1 mph - N/A   Partly Cloudy
5:50 PM 44.6 °F 38.4 °F 39.2 °F 81% 29.71 in 6.2 mi WSW 12.7 mph - N/A   Partly Cloudy
6:20 PM 44.6 °F 38.4 °F 39.2 °F 81% 29.71 in 6.2 mi WSW 12.7 mph - N/A   Partly Cloudy
6:50 PM 44.6 °F 37.4 °F 39.2 °F 81% 29.71 in 6.2 mi WSW 16.1 mph - N/A   Partly Cloudy
7:20 PM 44.6 °F 37.2 °F 39.2 °F 81% 29.74 in 6.2 mi WSW 17.3 mph - N/A   Partly Cloudy
7:50 PM 42.8 °F 35.8 °F 39.2 °F 87% 29.74 in 6.2 mi WSW 13.8 mph - N/A   Partly Cloudy
8:20 PM 42.8 °F 35.4 °F 39.2 °F 87% 29.74 in 6.2 mi WSW 15.0 mph - N/A   Partly Cloudy
8:50 PM 42.8 °F 35.4 °F 39.2 °F 87% 29.74 in 6.2 mi WSW 15.0 mph - N/A   Partly Cloudy
9:20 PM 42.8 °F 34.5 °F 39.2 °F 87% 29.77 in 6.2 mi WSW 18.4 mph - N/A   Mostly Cloudy
9:50 PM 42.8 °F 35.1 °F 39.2 °F 87% 29.77 in 6.2 mi WSW 16.1 mph - N/A   Partly Cloudy
10:20 PM 42.8 °F 35.1 °F 39.2 °F 87% 29.77 in 6.2 mi WSW 16.1 mph - N/A   Mostly Cloudy
10:50 PM 42.8 °F 35.1 °F 39.2 °F 87% 29.77 in 6.2 mi WSW 16.1 mph - N/A   Scattered Clouds
11:20 PM 42.8 °F 37.0 °F 39.2 °F 87% 29.80 in 6.2 mi WSW 10.4 mph - N/A   Partly Cloudy
11:50 PM 42.8 °F 36.6 °F 39.2 °F 87% 29.80 in 6.2 mi WSW 11.5 mph - N/A   Partly Cloudy